Location: Home
(42.5358°N, 72.7383°W)
Time: 12:07:30
(UTC-05:00)

Transit 4A - Pass Details

Date: 30 November 2021
Orbit: 863 x 981 km, 66.8° (Epoch: 26 January)

Event Time Altitude Azimuth Distance (km) Brightness Sun altitude
Rises 19:37:55 0° 203° (SSW) 3,438 11.1 -36.0°
Reaches altitude 10° 19:40:21 10° 202° (SSW) 2,513 10.3 -36.5°
Enters shadow 19:40:34 11° 202° (SSW) 2,434 10.2 -36.5°
Maximum altitude 19:46:09 76° 118° (ESE) 916 - -37.5°
Drops below altitude 10° 19:52:08 10° 33° (NNE) 2,594 - -38.6°
Sets 19:54:41 0° 32° (NNE) 3,557 - -39.1°
